"Pseudo-MPEC" for P21Y3aL

Created 2024 Sep 11 3:22:19 UT using Find_Orb

Click here for an explanation of pseudo-MPECs

 
 Astrometry: 
     P21Y3aL* C2024 09 05.32604922 55 44.660+11 56 04.24   ~95AM 22.13wXNEOCPF52
     P21Y3aL  C2024 09 05.33924422 55 43.686+11 56 28.68   ~95AM 22.47wXNEOCPF52
     P21Y3aL  C2024 09 05.35244722 55 42.718+11 56 53.03   ~95AM 22.19wXNEOCPF52

Station data:
(F52) Pan-STARRS 2, Haleakala  (N20.707382 W156.255910)  US/Hawaii.
   Observers J. Bulger, T. Dukes, T. Lowe, A. Schultz, M. Willman. Measurers
   K. Chambers, S. Chastel, T. de Boer, L. Denneau, J. Fairlamb, H.
   Flewelling, M. Huber, C.-C. Lin, E. Magnier, Y. Ramanjooloo, R. Wainscoat,
   R. Weryk. 1.8-m Ritchey-Chrétien + CCD.

Orbital elements:  P21Y3aL
   Perihelion 2024 Jul 24.53817 +/- 48.3 TT = 12:54:57 (JD 2460516.03817)
Epoch 2024 Sep  5.0 TT = JDT 2460558.5   Earth MOID: 0.2342      AutoNEOCP
M  11.85670529 +/- 19               (J2000 ecliptic)
n   0.27923207 +/- 0.253            Peri.  342.18971 +/- 70
a   2.31824416 +/- 1.4              Node   327.35604 +/- 55
e   0.4653080 +/- 0.255             Incl.   13.84857 +/- 7
P   3.52971                H 23.19  G  0.15   U 11.8  SR
q 1.23954646 +/- 0.342    Q 3.39694186 +/- 53.1
From 3 observations 2024 Sept. 5 (38.0 min); mean residual 0".03
Residuals in arcseconds: 
240905 F52  .03+  .01-    240905 F52  .06-  .02+    240905 F52  .03+  .01-    

Ephemerides (geocentric):
Date (UTC) HH   RA             Dec           delta  r     elong  mag " sig PA
---- --------  ------------   ------------  ------ ------ -----  --- --------
2024 09 11 03  22 49 58.904   +14 31 21.41  .34774 1.3383 159.7 22.4  40d  95
2024 09 11 04  22 49 56.668   +14 32 19.25  .34794 1.3385 159.7 22.4  40d  95
2024 09 11 05  22 49 54.435   +14 33 16.96  .34814 1.3387 159.7 22.4  40d  95
2024 09 11 06  22 49 52.206   +14 34 14.54  .34835 1.3388 159.7 22.4  41d  95
2024 09 11 07  22 49 49.981   +14 35 12.01  .34855 1.3390 159.7 22.4  41d  96
2024 09 11 08  22 49 47.760   +14 36 09.35  .34875 1.3391 159.7 22.4  41d  96
2024 09 11 09  22 49 45.543   +14 37 06.56  .34895 1.3393 159.6 22.4  41d  96
2024 09 11 10  22 49 43.330   +14 38 03.66  .34916 1.3394 159.6 22.4  41d  96
2024 09 11 11  22 49 41.120   +14 39 00.63  .34936 1.3396 159.6 22.4  41d  96
2024 09 11 12  22 49 38.914   +14 39 57.48  .34957 1.3398 159.6 22.4  41d  96
2024 09 11 13  22 49 36.712   +14 40 54.20  .34977 1.3399 159.6 22.4  41d  97
2024 09 11 14  22 49 34.514   +14 41 50.80  .34997 1.3401 159.6 22.4  41d  97
2024 09 11 15  22 49 32.320   +14 42 47.28  .35018 1.3402 159.5 22.4  41d  97
2024 09 11 16  22 49 30.130   +14 43 43.64  .35038 1.3404 159.5 22.4  41d  97
2024 09 11 17  22 49 27.944   +14 44 39.88  .35059 1.3406 159.5 22.4  41d  97
2024 09 11 18  22 49 25.762   +14 45 35.99  .35079 1.3407 159.5 22.4  41d  97
2024 09 11 19  22 49 23.583   +14 46 31.98  .35100 1.3409 159.5 22.4  41d  97
2024 09 11 20  22 49 21.409   +14 47 27.85  .35121 1.3410 159.5 22.4  41d  97
2024 09 11 21  22 49 19.238   +14 48 23.60  .35141 1.3412 159.4 22.4  41d  97
2024 09 11 22  22 49 17.071   +14 49 19.23  .35162 1.3414 159.4 22.4  41d  97
2024 09 11 23  22 49 14.909   +14 50 14.74  .35182 1.3415 159.4 22.4  41d  97
2024 09 12 00  22 49 12.750   +14 51 10.12  .35203 1.3417 159.4 22.4  41d  98
2024 09 12 01  22 49 10.595   +14 52 05.38  .35224 1.3418 159.4 22.4  41d  98
2024 09 12 02  22 49 08.444   +14 53 00.53  .35245 1.3420 159.4 22.4  41d  98
2024 09 12 03  22 49 06.297   +14 53 55.55  .35265 1.3422 159.3 22.4  41d  98
2024 09 12 04  22 49 04.154   +14 54 50.45  .35286 1.3423 159.3 22.4  41d  98
2024 09 12 05  22 49 02.015   +14 55 45.23  .35307 1.3425 159.3 22.4  41d  98
2024 09 12 06  22 48 59.881   +14 56 39.89  .35328 1.3427 159.3 22.4  41d  98
2024 09 12 07  22 48 57.750   +14 57 34.43  .35349 1.3428 159.3 22.4  41d  98
2024 09 12 08  22 48 55.623   +14 58 28.85  .35369 1.3430 159.2 22.4  41d  98
2024 09 12 09  22 48 53.500   +14 59 23.15  .35390 1.3431 159.2 22.4  41d  98
2024 09 12 10  22 48 51.381   +15 00 17.33  .35411 1.3433 159.2 22.4  41d  97
2024 09 12 11  22 48 49.266   +15 01 11.39  .35432 1.3435 159.2 22.4  41d  97
2024 09 12 12  22 48 47.155   +15 02 05.33  .35453 1.3436 159.2 22.4  41d  97
2024 09 12 13  22 48 45.048   +15 02 59.15  .35474 1.3438 159.2 22.4  42d  97
2024 09 12 14  22 48 42.946   +15 03 52.86  .35495 1.3439 159.1 22.4  42d  96
2024 09 12 15  22 48 40.847   +15 04 46.44  .35516 1.3441 159.1 22.4  42d  96
2024 09 12 16  22 48 38.752   +15 05 39.90  .35537 1.3443 159.1 22.4  42d  96
2024 09 12 17  22 48 36.661   +15 06 33.25  .35558 1.3444 159.1 22.4  43d  96
2024 09 12 18  22 48 34.575   +15 07 26.48  .35579 1.3446 159.1 22.4  43d  96
2024 09 12 19  22 48 32.492   +15 08 19.59  .35600 1.3448 159.1 22.4  43d  96
2024 09 12 20  22 48 30.414   +15 09 12.58  .35621 1.3449 159.0 22.4  43d  96
2024 09 12 21  22 48 28.340   +15 10 05.45  .35643 1.3451 159.0 22.4  43d  96
2024 09 12 22  22 48 26.269   +15 10 58.20  .35664 1.3452 159.0 22.4  43d  96
2024 09 12 23  22 48 24.203   +15 11 50.84  .35685 1.3454 159.0 22.5  43d  96
2024 09 13 00  22 48 22.141   +15 12 43.35  .35706 1.3456 159.0 22.5  43d  96
2024 09 13 01  22 48 20.083   +15 13 35.75  .35728 1.3457 158.9 22.5  43d  96
2024 09 13 02  22 48 18.029   +15 14 28.04  .35749 1.3459 158.9 22.5  44d  97